Snowfall_Accumulation
nan nan nan nan nan nan nan nan nan nan nan nan nan nan nan nan nan 0.0 0.0 0.0 0.4 8.3 2.0 0.1 0.1 2.9 3.3 3.4 11.0 6.8 9.7 5.4 4.0 6.1 5.7 2.7 3.1 2.7 1.4 1.8 2.8 5.7 10.3 4.2 5.1 7.8 7.5 0.7 0.3 2.7 4.0 1.5 0.7 1.3
nan nan nan nan nan nan nan nan nan nan nan nan nan nan nan nan nan nan 0.1 0.0 0.0 1.5 2.3 0.1 0.0 0.0 0.1 0.9 3.9 7.0 2.7 1.9 3.4 7.0 6.9 8.6 6.5 3.5 0.7 4.7 0.0 6.0 3.1 9.5 7.7 4.6 1.2 0.8 1.7 1.5 1.7 3.0 1.7 1.5
nan nan nan nan nan nan nan nan nan nan nan nan nan nan nan nan nan nan 0.0 0.2 0.4 3.9 2.1 2.0 1.1 0.1 0.0 0.1 0.1 11.6 3.2 1.6 4.9 2.6 9.6 8.7 10.3 1.9 5.5 2.0 1.1 0.4 0.4 8.0 3.3 1.1 1.1 1.4 1.2 0.8 1.4 1.0 0.3 0.3
nan nan nan nan nan nan nan nan nan nan nan nan nan nan nan nan nan nan 0.0 0.0 0.4 4.3 19.6 1.8 0.1 0.2 0.1 0.1 0.3 0.3 1.6 3.9 5.0 6.6 14.3 13.3 8.2 2.0 3.8 2.2 2.7 2.3 3.2 2.7 4.0 1.4 1.9 1.1 0.5 0.9 1.0 0.6 0.2 0.1
nan nan nan nan nan nan nan nan nan nan nan nan nan nan nan nan nan nan 0.2 0.3 0.1 2.6 9.9 1.5 0.3 0.3 0.2 0.3 0.5 0.9 1.9 4.8 7.0 10.6 10.7 9.3 1.6 5.4 2.7 5.0 4.9 3.2 9.6 9.9 7.0 2.6 5.6 1.1 0.8 0.3 1.4 1.0 0.8 1.3
nan nan nan nan nan nan nan nan nan nan nan nan nan nan nan nan nan 0.1 3.3 0.3 0.2 0.3 16.3 15.1 1.8 0.5 0.2 0.2 0.6 1.3 1.9 3.4 3.9 6.5 6.5 4.3 2.1 6.5 17.5 6.5 1.9 1.6 1.6 5.0 8.7 2.2 1.2 1.0 0.6 0.1 1.0 1.0 1.5 2.9
nan nan nan nan nan nan nan nan nan nan nan nan nan nan nan nan 0.1 1.3 2.2 0.3 nan 0.4 17.5 23.9 7.2 1.0 0.5 0.6 0.8 1.1 1.3 2.2 3.8 4.7 6.0 3.3 3.6 10.8 14.0 8.7 1.0 0.8 0.2 0.3 1.1 3.3 1.6 0.7 2.3 0.6 1.1 0.7 0.5 0.2
nan nan nan nan nan nan nan nan nan nan nan nan nan nan nan nan nan 2.1 0.9 nan nan 3.9 5.6 24.4 8.0 1.0 0.2 1.1 2.0 1.0 1.9 2.2 4.0 4.1 4.2 5.4 4.2 5.5 12.8 0.6 0.6 0.5 0.4 0.4 0.6 0.9 2.0 0.5 0.2 0.4 0.2 0.3 0.5 0.2
nan nan nan nan nan nan nan nan nan nan nan nan nan nan 0.1 2.3 3.7 1.9 nan nan 2.7 6.1 20.6 14.2 6.8 7.0 0.8 1.4 2.0 2.8 2.1 9.4 3.7 7.0 5.0 3.9 4.5 9.8 5.2 3.9 1.4 1.7 4.1 3.3 0.2 0.1 0.1 0.3 0.3 0.2 0.3 0.4 1.0 0.4
nan nan nan nan nan nan nan nan nan nan nan nan 0.5 3.7 15.1 4.1 nan nan 3.7 5.1 5.0 10.1 12.9 10.5 2.5 8.3 1.6 3.3 7.7 6.2 6.1 9.8 14.4 8.0 4.6 7.6 4.7 0.7 0.9 1.1 2.2 2.5 2.2 2.1 2.9 3.1 1.2 1.0 0.7 0.8 1.7 1.4 2.5 2.3
nan nan nan nan nan nan nan nan nan nan nan 1.9 10.1 13.1 6.9 nan 3.2 8.5 21.2 20.4 15.6 19.0 8.3 7.9 6.4 8.4 5.3 11.2 8.9 7.8 11.2 9.8 16.8 6.2 9.3 7.7 4.7 0.8 0.1 0.4 0.2 0.6 1.1 2.2 2.2 3.3 3.2 5.4 5.3 3.9 1.4 1.1 1.1 1.4
nan nan nan nan nan nan nan nan nan 0.4 1.7 4.0 4.6 4.4 4.4 10.5 18.9 24.0 20.9 13.0 13.7 14.8 7.9 6.6 5.1 5.4 8.6 4.9 11.5 14.6 14.3 10.4 15.0 3.3 12.1 6.4 1.3 0.3 0.2 0.5 1.0 1.2 2.0 2.8 3.3 5.2 3.6 3.9 3.6 3.2 2.9 2.8 2.8 2.8
nan nan nan nan nan nan nan nan nan nan nan 4.4 10.2 15.9 17.1 20.0 43.8 22.2 17.2 12.9 14.3 5.6 5.7 6.4 10.9 5.6 7.8 4.7 11.5 10.9 20.2 16.4 2.9 15.5 5.8 2.7 0.3 0.1 1.0 0.7 0.8 0.3 0.5 0.9 1.9 1.5 1.6 1.4 0.7 2.6 2.0 1.5 2.1 2.6
nan nan nan nan nan nan nan nan nan 0.4 3.7 19.2 24.2 48.6 22.6 19.8 7.0 3.3 3.8 4.9 3.5 5.0 6.2 4.5 8.0 7.6 6.8 10.9 6.8 19.5 6.2 8.0 18.3 13.4 5.0 1.1 1.7 1.2 0.8 0.7 1.3 1.5 1.5 2.6 4.1 2.9 1.9 2.3 2.6 1.7 3.0 3.9 3.6 5.6
nan nan nan nan nan nan nan nan nan 2.6 9.1 27.1 19.7 33.0 16.2 3.8 4.6 5.5 5.7 5.3 6.1 4.6 4.8 8.2 6.4 4.3 10.4 15.3 8.3 10.0 17.7 15.3 4.4 4.4 2.2 3.1 3.0 3.4 3.2 2.7 3.1 2.6 3.7 4.6 6.4 4.9 4.2 3.6 3.2 3.4 5.4 5.1 4.0 4.9
nan nan 0.0 nan nan nan nan nan 4.7 6.0 18.2 24.8 21.9 17.7 4.1 7.7 10.1 9.2 9.0 8.0 5.0 5.0 5.3 7.7 12.5 17.3 15.2 15.2 18.5 11.7 14.2 7.9 5.4 5.9 4.0 3.7 3.0 3.7 4.6 5.5 7.5 7.9 8.5 7.0 9.1 9.5 7.0 6.6 8.1 9.3 5.1 5.8 6.0 5.1
nan 0.2 nan nan nan nan nan 5.7 8.8 28.6 27.5 29.2 22.7 3.6 7.2 7.7 9.9 9.1 6.4 6.6 4.5 8.2 12.4 13.6 21.3 15.7 9.7 14.6 9.7 4.0 10.1 4.3 5.2 4.7 5.5 4.8 5.5 5.9 4.9 5.5 7.3 8.7 10.2 9.0 10.1 9.4 10.7 10.1 6.5 2.3 4.4 6.2 4.5 4.6
0.2 0.0 nan nan nan nan 14.1 12.8 23.8 29.9 35.4 15.3 11.5 6.2 5.2 5.2 7.0 4.3 4.7 5.6 8.3 9.5 10.9 16.8 10.6 17.5 17.1 12.3 6.6 3.8 4.4 4.1 4.3 5.5 7.5 6.6 6.1 7.4 6.5 8.4 7.1 7.1 6.7 6.8 5.5 3.8 3.0 2.2 2.6 4.6 4.0 3.9 3.2 3.2
0.0 0.0 nan nan 0.5 6.9 20.6 28.5 14.2 30.7 23.4 8.1 7.3 5.5 4.3 5.1 4.1 4.3 5.3 6.4 9.4 8.0 10.6 13.6 18.3 17.8 7.4 4.5 5.0 5.1 5.8 5.4 5.7 6.0 7.2 6.1 4.7 5.2 4.6 4.4 3.5 2.8 3.7 3.1 2.7 3.8 3.5 2.5 2.6 2.3 2.6 1.4 1.2 0.9
nan nan nan nan nan 14.6 35.0 28.8 11.6 14.9 17.2 10.0 7.3 7.9 5.4 7.0 5.1 4.4 4.6 5.4 6.1 10.8 17.7 22.5 8.6 6.7 7.3 6.4 6.6 6.7 7.0 7.5 5.2 3.5 4.1 3.1 2.1 0.7 0.5 0.5 0.4 0.2 0.3 0.3 0.6 nan 0.9 0.4 0.4 0.4 0.8 1.2 1.6 1.1
nan nan nan 4.1 8.4 12.0 18.6 22.1 18.4 15.8 10.8 9.7 10.1 5.6 8.9 6.9 9.0 11.1 10.4 4.3 15.1 17.9 14.9 6.7 6.7 7.0 6.5 7.0 8.4 8.1 7.8 4.9 3.9 2.5 1.5 0.9 0.2 0.5 0.6 0.7 0.9 0.3 0.6 0.5 0.6 0.4 0.6 1.1 1.0 0.8 5.0 0.8 0.7 1.0
3.9 nan 10.1 7.9 29.1 34.8 26.1 15.1 13.3 9.8 14.3 11.6 10.9 8.1 16.1 18.7 15.8 14.2 9.0 21.1 19.3 8.7 7.1 6.4 5.9 6.4 6.3 6.5 5.6 3.6 1.6 0.8 0.6 0.5 nan 1.0 1.4 1.0 0.9 1.0 2.1 3.9 3.3 3.7 2.1 1.7 1.1 1.2 1.5 1.1 1.1 1.0 0.9 1.0
nan 5.7 15.4 20.3 32.6 32.8 36.9 9.5 15.7 14.9 14.6 17.3 14.8 15.0 17.9 18.6 11.7 6.7 17.5 10.7 8.1 6.6 5.7 4.6 4.0 2.9 2.8 1.7 0.8 0.6 0.6 0.3 0.3 0.4 0.3 0.4 0.4 0.7 1.2 0.8 1.2 5.0 4.8 1.5 1.3 1.6 2.5 nan 1.2 2.0 1.2 1.4 1.4 1.5
nan 26.6 34.3 30.0 27.8 32.6 17.8 21.2 9.1 10.7 12.6 13.4 17.6 15.8 16.8 13.2 9.6 17.3 15.2 7.5 6.2 6.9 5.6 5.8 4.2 2.4 2.1 2.9 3.0 1.9 0.7 0.6 0.7 0.6 0.5 1.0 1.2 0.4 0.4 0.4 0.3 0.7 1.8 1.2 1.5 2.0 1.9 1.9 nan 2.1 2.7 3.5 3.8 3.7
43.8 56.1 29.5 44.2 23.5 21.4 14.0 12.6 15.0 9.1 10.7 9.8 12.6 14.4 14.1 11.5 15.4 17.2 10.9 9.2 6.1 6.1 6.2 5.7 4.8 3.8 4.8 3.8 1.5 0.6 0.2 0.8 1.1 1.3 0.7 1.0 0.7 0.6 1.7 0.9 0.2 0.5 1.1 5.4 2.4 2.8 3.0 3.4 3.1 4.0 4.3 4.9 5.8 6.3
52.9 28.0 35.0 13.8 17.1 9.7 7.8 10.3 9.0 9.7 7.4 11.5 11.7 9.6 12.1 11.4 15.9 17.6 7.5 8.0 8.6 7.7 7.5 6.0 5.1 3.0 0.9 0.7 0.8 0.9 0.6 0.8 1.1 1.5 1.2 1.2 1.4 4.3 5.7 3.2 3.1 1.3 0.9 2.1 6.0 6.5 4.8 4.6 5.3 5.8 5.8 5.5 nan 7.9
39.5 25.0 9.6 2.1 2.7 1.4 3.4 3.3 3.1 6.1 11.3 11.9 10.0 9.8 11.5 19.3 13.8 4.8 4.3 5.2 5.4 5.1 3.5 2.1 1.5 1.3 1.2 1.2 1.0 1.1 1.0 2.0 2.6 1.9 1.1 1.7 1.8 1.8 4.2 7.6 7.8 2.1 3.6 6.6 6.4 6.7 7.8 6.0 6.7 7.0 7.6 7.3 6.8 7.9
8.4 5.6 7.5 9.5 5.1 4.7 4.6 5.6 6.3 8.4 7.5 5.0 4.7 11.6 12.3 9.4 7.6 5.4 5.7 5.6 7.4 7.1 6.4 4.5 3.5 2.9 3.5 3.1 3.1 2.3 3.8 4.1 4.9 5.5 5.1 3.6 3.7 3.7 3.7 4.1 5.5 nan 8.4 7.1 9.7 9.5 8.7 8.5 9.6 8.5 8.0 9.3 8.0 6.6
9.2 6.9 4.0 9.7 9.4 9.7 10.5 9.5 7.9 5.0 2.2 4.4 8.2 6.8 6.1 3.5 7.2 7.3 4.2 6.4 9.0 9.7 9.4 8.0 8.2 7.7 7.0 5.5 5.9 7.4 7.1 7.0 7.9 7.4 5.1 4.4 4.7 6.2 6.3 6.1 8.4 8.7 7.9 8.8 nan nan 13.1 14.6 13.3 12.0 9.9 8.7 7.5 9.5
8.6 8.4 7.2 8.9 8.7 8.5 9.0 6.3 9.2 8.9 4.2 4.1 4.0 4.8 4.4 6.0 8.1 6.7 8.6 9.7 11.5 13.3 11.5 11.6 10.7 13.3 11.9 10.1 11.1 8.9 8.4 8.3 7.2 6.8 11.9 9.2 6.5 6.2 9.9 11.2 10.0 9.9 10.2 10.9 9.6 8.9 nan 10.3 nan 12.0 11.1 10.3 9.8 10.0
6.7 10.2 10.0 9.7 10.8 12.6 11.3 7.6 9.3 4.4 7.7 11.3 10.5 12.3 10.3 12.2 8.4 6.7 7.0 8.2 11.3 14.0 13.9 14.9 14.5 14.4 10.9 11.2 12.6 11.7 10.2 8.5 10.2 9.6 8.9 10.6 11.3 11.3 11.7 11.2 11.6 13.1 12.6 11.6 10.8 10.0 10.6 10.9 11.2 12.1 10.6 11.4 10.5 10.4
9.6 12.2 11.5 10.2 14.2 15.4 12.4 14.5 15.5 13.8 14.0 13.5 13.9 14.8 13.3 12.2 10.1 8.4 6.2 12.5 12.9 10.8 nan 11.4 9.2 7.4 7.3 7.6 6.8 7.7 nan 8.8 10.3 10.5 11.5 11.1 10.6 9.7 9.5 10.9 13.3 13.9 13.1 12.1 11.6 10.9 11.9 13.4 12.8 12.4 11.1 11.9 11.7 10.1
18.6 16.1 18.0 14.6 18.4 16.4 15.5 18.1 12.3 19.2 15.1 14.7 12.4 11.7 13.0 8.6 7.5 7.3 7.1 9.3 6.9 7.1 8.2 8.6 8.3 8.5 8.6 9.3 8.3 8.1 nan 9.6 11.4 nan nan nan nan nan 16.0 12.6 11.4 10.9 10.6 10.4 10.9 11.5 12.5 13.2 13.8 11.6 12.1 12.7 12.0 10.9
Water_Equivalent
nan nan nan nan nan nan nan nan nan nan nan nan nan nan nan nan nan 0.00 0.00 0.00 0.11 1.85 0.40 0.02 0.02 0.45 0.55 0.56 1.27 0.86 1.09 0.58 0.42 0.60 0.57 0.28 0.29 0.29 0.13 0.16 0.24 0.43 0.72 0.29 0.36 0.56 0.75 0.08 0.03 0.19 0.34 0.17 0.08 0.14
nan nan nan nan nan nan nan nan nan nan nan nan nan nan nan nan nan nan 0.03 0.00 0.00 0.46 0.60 0.03 0.02 0.01 0.02 0.19 0.64 1.10 0.38 0.23 0.50 0.77 0.78 0.93 0.64 0.31 0.06 0.35 0.00 0.44 0.28 0.74 0.68 0.36 0.13 0.10 0.19 0.18 0.20 0.31 0.19 0.16
nan nan nan nan nan nan nan nan nan nan nan nan nan nan nan nan nan nan 0.01 0.06 0.14 1.03 0.50 0.40 0.23 0.03 0.01 0.02 0.02 1.48 0.50 0.26 0.69 0.39 1.23 1.11 1.01 0.24 0.48 0.17 0.10 0.05 0.06 0.76 0.31 0.11 0.11 0.16 0.16 0.10 0.17 0.12 0.04 0.04
nan nan nan nan nan nan nan nan nan nan nan nan nan nan nan nan nan nan 0.02 0.01 0.16 1.20 2.90 0.30 0.02 0.04 0.02 0.03 0.07 0.10 0.34 0.73 0.82 1.01 1.76 1.62 0.86 0.25 0.35 0.21 0.24 0.25 0.34 0.25 0.34 0.14 0.20 0.12 0.07 0.11 0.11 0.07 0.02 0.01
nan nan nan nan nan nan nan nan nan nan nan nan nan nan nan nan nan nan 0.08 0.13 0.02 0.58 1.50 0.23 0.05 0.05 0.04 0.06 0.11 0.19 0.33 0.75 0.92 1.23 1.22 1.01 0.20 0.56 0.29 0.46 0.44 0.32 0.84 0.80 0.58 0.27 0.47 0.12 0.09 0.04 0.12 0.10 0.08 0.12
nan nan nan nan nan nan nan nan nan nan nan nan nan nan nan nan nan 0.06 0.74 0.13 0.07 0.13 2.80 2.14 0.28 0.08 0.03 0.03 0.09 0.18 0.29 0.50 0.54 0.83 0.77 0.51 0.25 0.72 2.06 0.62 0.19 0.15 0.15 0.46 0.74 0.20 0.11 0.10 0.07 0.02 0.10 0.09 0.14 0.26
nan nan nan nan nan nan nan nan nan nan nan nan nan nan nan nan 0.05 0.40 0.59 0.10 nan 0.15 3.05 3.87 1.15 0.14 0.08 0.08 0.13 0.15 0.19 0.29 0.43 0.56 0.68 0.37 0.37 1.29 1.72 1.01 0.09 0.09 0.03 0.03 0.09 0.28 0.14 0.06 0.20 0.05 0.10 0.07 0.05 0.03
nan nan nan nan nan nan nan nan nan nan nan nan nan nan nan nan nan 0.62 0.32 nan nan 0.90 1.08 4.22 1.55 0.14 0.04 0.12 0.28 0.14 0.20 0.24 0.44 0.44 0.46 0.57 0.44 0.59 1.55 0.06 0.06 0.06 0.04 0.03 0.05 0.08 0.17 0.05 0.02 0.04 0.02 0.04 0.05 0.02
nan nan nan nan nan nan nan nan nan nan nan nan nan nan 0.02 0.62 0.73 0.45 nan nan 0.74 1.16 3.75 2.69 1.19 1.49 0.10 0.15 0.20 0.31 0.23 1.19 0.46 0.82 0.59 0.42 0.51 1.13 0.47 0.34 0.12 0.15 0.33 0.27 0.02 0.00 0.01 0.02 0.02 0.02 0.03 0.04 0.09 0.04
nan nan nan nan nan nan nan nan nan nan nan nan 0.17 0.89 3.27 0.90 nan nan 0.71 0.94 1.12 2.13 2.21 1.65 0.31 1.01 0.16 0.36 0.92 0.74 0.83 1.32 2.31 0.91 0.54 0.92 0.50 0.07 0.08 0.10 0.20 0.22 0.19 0.17 0.23 0.23 0.10 0.09 0.06 0.07 0.16 0.12 0.21 0.19
nan nan nan nan nan nan nan nan nan nan nan 0.62 2.23 2.32 1.57 nan 0.66 1.60 4.17 4.22 3.49 3.73 1.70 1.10 0.75 0.84 0.53 1.33 0.94 0.98 1.65 1.45 2.30 0.68 0.99 1.03 0.53 0.08 0.01 0.04 0.02 0.05 0.09 0.18 0.19 0.27 0.27 0.46 0.45 0.34 0.12 0.10 0.10 0.12
nan nan nan nan nan nan nan nan nan 0.18 0.68 1.07 1.08 0.85 0.89 1.78 3.18 3.97 3.41 2.20 2.26 2.19 1.15 0.94 0.61 0.51 0.95 0.71 1.52 2.14 2.04 1.58 1.77 0.40 1.56 0.77 0.12 0.02 0.02 0.05 0.08 0.11 0.18 0.25 0.30 0.47 0.35 0.38 0.33 0.27 0.25 0.24 0.25 0.25
nan nan nan nan nan nan nan nan nan nan nan 1.06 1.86 3.13 2.86 3.47 7.72 3.48 2.37 2.17 2.32 0.84 0.87 0.81 1.37 0.69 1.01 0.69 1.91 1.57 2.85 2.21 0.42 2.22 0.62 0.28 0.04 0.02 0.12 0.07 0.07 0.02 0.05 0.09 0.19 0.15 0.17 0.13 0.07 0.23 0.17 0.16 0.23 0.29
nan nan nan nan nan nan nan nan nan 0.17 1.14 3.36 4.65 9.07 3.62 3.03 1.09 0.62 0.53 0.80 0.46 0.73 0.74 0.50 1.00 1.08 0.95 1.58 0.83 2.98 0.71 0.92 2.37 1.56 0.63 0.14 0.17 0.14 0.08 0.07 0.12 0.14 0.13 0.24 0.40 0.29 0.18 0.22 0.26 0.18 0.32 0.41 0.37 0.56
nan nan nan nan nan nan nan nan nan 0.79 1.84 5.09 3.79 5.52 2.69 0.60 0.81 0.87 1.13 0.90 0.92 0.62 0.65 1.00 0.92 0.53 1.71 2.32 1.03 1.40 2.26 1.94 0.47 0.50 0.28 0.42 0.32 0.37 0.36 0.29 0.31 0.24 0.35 0.44 0.70 0.52 0.46 0.39 0.35 0.39 0.62 0.58 0.46 0.55
nan nan 0.00 nan nan nan nan nan 1.39 1.39 3.76 5.47 4.34 3.10 0.52 1.29 1.64 1.46 1.60 1.27 0.70 0.66 0.75 1.20 2.03 2.58 2.22 2.06 2.47 1.56 1.93 0.92 0.71 0.89 0.58 0.52 0.37 0.41 0.48 0.61 0.86 0.89 0.95 0.76 1.05 1.12 0.83 0.71 0.84 0.96 0.59 0.67 0.67 0.55
nan 0.06 nan nan nan nan nan 1.44 2.24 6.85 6.49 6.57 4.62 0.49 1.02 1.21 1.38 1.05 0.70 0.70 0.54 1.07 1.96 2.14 2.99 2.01 1.44 2.00 1.25 0.69 1.48 0.62 0.80 0.69 0.67 0.52 0.58 0.63 0.55 0.63 0.84 1.02 1.23 1.03 1.17 1.10 1.23 1.18 0.76 0.25 0.44 0.64 0.45 0.46
0.08 0.00 nan nan nan nan 2.42 2.67 5.32 6.93 7.04 3.21 1.76 0.92 0.56 0.58 0.77 0.44 0.49 0.62 1.01 1.26 1.49 2.70 1.66 2.63 2.33 1.62 0.83 0.49 0.58 0.66 0.60 0.66 0.87 0.77 0.71 0.89 0.78 0.96 0.82 0.81 0.72 0.74 0.60 0.44 0.33 0.25 0.27 0.46 0.41 0.41 0.34 0.34
0.00 0.00 nan nan 0.17 1.52 4.82 6.39 3.85 5.78 4.28 1.35 0.90 0.66 0.49 0.50 0.40 0.42 0.52 0.63 1.05 0.93 1.63 2.12 2.68 2.48 0.79 0.59 0.68 0.82 0.83 0.65 0.58 0.67 0.83 0.71 0.54 0.59 0.53 0.53 0.42 0.32 0.42 0.32 0.27 0.36 0.34 0.24 0.25 0.23 0.25 0.13 0.11 0.08
nan nan nan nan nan 3.35 7.22 5.92 2.75 2.58 2.62 1.32 1.03 1.08 0.69 0.80 0.50 0.42 0.41 0.53 0.72 1.95 2.95 3.41 0.95 0.59 0.68 0.69 0.77 0.75 0.78 0.85 0.56 0.35 0.42 0.34 0.24 0.11 0.07 0.09 0.04 0.03 0.03 0.04 0.08 nan 0.11 0.04 0.03 0.03 0.06 0.09 0.11 0.09
nan nan nan 0.59 1.47 3.08 4.68 3.96 3.01 2.58 1.71 1.24 1.41 0.82 1.12 1.15 1.41 1.89 1.83 0.55 2.39 3.15 2.20 0.64 0.60 0.68 0.67 0.75 0.91 0.89 0.86 0.51 0.39 0.22 0.13 0.12 0.02 0.09 0.10 0.14 0.18 0.02 0.05 0.03 0.04 0.03 0.05 0.08 0.07 0.09 0.97 0.08 0.06 0.09
1.35 nan 2.04 1.51 7.29 7.67 4.86 2.96 2.26 1.46 1.95 1.68 1.61 1.23 2.57 2.98 2.53 2.34 1.53 3.29 2.88 1.15 0.64 0.55 0.55 0.62 0.61 0.56 0.47 0.31 0.15 0.07 0.05 0.04 nan 0.08 0.15 0.14 0.13 0.17 0.29 0.59 0.52 0.60 0.30 0.18 0.11 0.12 0.15 0.12 0.13 0.14 0.11 0.12
nan 1.05 3.56 5.28 6.15 6.13 6.59 1.76 2.21 2.09 1.98 2.51 2.20 2.11 2.60 2.85 1.87 1.11 2.59 1.69 1.08 0.64 0.54 0.46 0.37 0.26 0.26 0.14 0.07 0.05 0.05 0.03 0.03 0.03 0.03 0.03 0.03 0.12 0.22 0.12 0.18 0.75 0.75 0.23 0.18 0.20 0.35 nan 0.13 0.20 0.15 0.17 0.17 0.18
nan 5.78 6.48 5.38 4.78 5.27 2.56 3.07 1.18 1.34 1.59 1.69 2.38 2.04 2.18 1.75 1.28 2.49 1.95 0.92 0.66 0.73 0.58 0.50 0.46 0.28 0.24 0.30 0.28 0.18 0.09 0.09 0.10 0.08 0.04 0.12 0.18 0.04 0.03 0.04 0.03 0.09 0.19 0.15 0.21 0.27 0.23 0.23 nan 0.27 0.34 0.42 0.44 0.39
9.41 11.40 5.31 7.89 3.51 2.88 1.64 1.34 1.85 1.00 1.26 1.12 1.44 1.76 1.77 1.27 1.98 2.29 1.20 1.06 0.70 0.68 0.65 0.55 0.50 0.41 0.58 0.51 0.15 0.08 0.03 0.15 0.14 0.16 0.13 0.15 0.08 0.07 0.26 0.14 0.02 0.06 0.15 0.82 0.27 0.31 0.38 0.42 0.38 0.48 0.48 0.50 0.59 0.64
9.80 4.70 5.99 1.92 2.33 1.16 0.87 1.15 0.95 1.07 0.80 1.27 1.31 1.01 1.39 1.31 1.95 2.28 0.74 0.92 1.02 0.92 1.00 0.88 0.72 0.39 0.11 0.11 0.10 0.11 0.07 0.12 0.15 0.20 0.20 0.21 0.22 0.66 0.92 0.43 0.41 0.19 0.11 0.21 0.76 0.76 0.56 0.54 0.57 0.58 0.60 0.55 nan 0.83
6.47 3.81 1.24 0.26 0.28 0.13 0.32 0.31 0.29 0.63 1.22 1.31 1.08 0.99 1.29 2.37 1.57 0.42 0.41 0.50 0.57 0.63 0.48 0.37 0.27 0.22 0.19 0.17 0.13 0.16 0.15 0.32 0.38 0.31 0.16 0.25 0.25 0.23 0.66 1.08 0.93 0.27 0.41 0.78 0.78 0.77 0.86 0.69 0.73 0.77 0.84 0.86 0.79 0.88
1.08 0.62 0.82 1.13 0.50 0.45 0.44 0.50 0.62 0.90 0.79 0.45 0.45 1.27 1.41 0.97 0.75 0.50 0.54 0.60 0.84 0.88 0.86 0.62 0.49 0.43 0.50 0.44 0.42 0.27 0.52 0.56 0.65 0.67 0.64 0.45 0.46 0.56 0.54 0.61 0.80 nan 1.09 0.98 1.21 1.24 1.11 1.01 1.14 1.00 0.89 1.13 1.03 0.85
1.06 0.78 0.44 1.10 0.92 0.99 1.17 1.03 0.81 0.46 0.17 0.39 0.85 0.66 0.55 0.27 0.75 0.73 0.44 0.71 1.03 1.03 0.92 0.76 0.88 1.04 0.86 0.64 0.70 0.89 0.86 0.80 0.82 0.71 0.46 0.46 0.52 0.80 0.86 0.82 1.10 1.17 1.09 1.21 nan nan 1.53 1.72 1.64 1.53 1.27 1.08 0.94 1.23
0.96 1.01 0.77 0.91 0.92 0.88 0.96 0.55 0.98 0.89 0.36 0.38 0.36 0.41 0.36 0.55 0.77 0.73 0.82 0.92 1.06 1.33 1.35 1.46 1.33 1.72 1.44 1.16 1.25 0.93 0.90 0.89 0.90 0.79 1.35 1.03 0.79 0.82 1.25 1.35 1.19 1.20 1.29 1.34 1.17 1.18 nan 1.39 nan 1.44 1.30 1.15 1.08 1.08
0.73 1.22 1.01 0.96 1.11 1.41 1.12 0.64 0.94 0.35 0.73 1.19 1.05 1.18 0.95 1.12 0.71 0.62 0.61 0.74 1.03 1.52 1.59 1.79 1.75 1.78 1.20 1.20 1.44 1.30 1.07 0.97 1.10 1.04 0.97 1.20 1.30 1.32 1.37 1.33 1.37 1.54 1.46 1.31 1.21 1.13 1.21 1.19 1.23 1.32 1.08 1.18 1.09 1.05
1.05 1.40 1.27 1.02 1.67 1.86 1.32 1.65 1.75 1.53 1.54 1.51 1.51 1.60 1.31 1.18 0.86 0.72 0.59 1.25 1.29 1.02 nan 1.20 0.89 0.75 0.82 0.87 0.82 0.94 nan 0.99 1.14 1.14 1.24 1.24 1.23 1.07 1.07 1.26 1.59 1.61 1.49 1.34 1.26 1.15 1.26 1.48 1.37 1.32 1.13 1.23 1.16 0.94
2.25 1.81 2.03 1.46 2.31 1.96 1.79 2.06 1.18 2.51 1.72 1.61 1.23 1.15 1.30 0.73 0.55 0.61 0.55 0.90 0.74 0.74 0.84 0.94 0.92 0.99 0.84 0.89 0.90 0.92 nan 1.08 1.25 nan nan nan nan nan 1.75 1.45 1.29 1.18 1.09 1.05 1.12 1.21 1.28 1.37 1.48 1.13 1.18 1.28 1.21 1.05
SL_Ratio
nan nan nan nan nan nan nan nan nan nan nan nan nan nan nan nan nan nan 3.3 nan 3.5 4.5 5.0 3.5 3.9 6.3 6.1 6.0 8.7 7.9 8.9 9.2 9.4 10.1 10.1 9.5 10.6 9.4 10.4 10.9 11.6 13.2 14.3 14.6 14.3 14.1 10.1 9.6 9.0 13.9 11.9 8.9 9.4 9.4
nan nan nan nan nan nan nan nan nan nan nan nan nan nan nan nan nan nan 2.7 nan nan 3.2 3.9 2.6 2.9 3.9 4.4 5.1 6.1 6.4 7.2 7.9 6.8 9.0 8.9 9.2 10.1 11.2 10.8 13.5 10.0 13.6 11.1 12.8 11.4 12.7 9.3 8.5 8.9 8.5 8.4 9.9 9.0 9.3
nan nan nan nan nan nan nan nan nan nan nan nan nan nan nan nan nan nan 2.5 2.6 2.7 3.8 4.3 5.0 5.1 3.9 4.1 3.4 3.0 7.9 6.4 6.2 7.2 6.5 7.8 7.8 10.1 8.0 11.5 12.1 10.3 8.7 7.0 10.6 10.7 9.9 9.2 8.7 7.8 7.6 7.9 8.5 8.4 8.8
nan nan nan nan nan nan nan nan nan nan nan nan nan nan nan nan nan nan 2.5 2.3 2.5 3.6 6.8 6.0 4.7 5.6 4.2 4.3 4.4 3.2 4.7 5.3 6.0 6.5 8.1 8.2 9.5 8.0 10.8 10.5 11.4 9.6 9.5 10.8 11.6 9.7 9.6 9.1 8.2 8.4 9.0 8.1 8.7 8.2
nan nan nan nan nan nan nan nan nan nan nan nan nan nan nan nan nan nan 2.5 2.5 2.6 4.5 6.6 6.3 5.6 5.5 5.0 4.9 5.1 4.8 5.7 6.5 7.6 8.6 8.8 9.2 8.1 9.7 9.4 10.8 11.0 10.0 11.4 12.4 12.1 9.7 11.9 9.4 8.6 8.1 11.3 10.4 9.6 11.3
nan nan nan nan nan nan nan nan nan nan nan nan nan nan nan nan nan 2.5 4.5 2.5 2.5 2.6 5.8 7.1 6.6 7.0 5.5 5.3 6.3 7.1 6.4 6.9 7.3 7.8 8.4 8.4 8.3 9.1 8.5 10.5 10.2 10.7 10.4 10.9 11.7 10.8 10.3 10.0 9.0 8.1 10.5 10.6 10.7 11.0
nan nan nan nan nan nan nan nan nan nan nan nan nan nan nan nan 2.5 3.2 3.7 2.7 nan 2.7 5.7 6.2 6.3 6.9 6.6 6.6 6.6 7.4 6.7 7.7 8.7 8.3 8.9 9.0 9.8 8.4 8.1 8.6 10.5 9.4 8.5 9.0 11.7 11.7 11.8 10.4 11.6 11.0 10.8 10.6 9.6 8.9
nan nan nan nan nan nan nan nan nan nan nan nan nan nan nan nan nan 3.4 2.8 nan nan 4.3 5.2 5.8 5.1 6.9 7.1 9.7 7.1 7.5 9.6 9.2 8.9 9.4 9.1 9.4 9.6 9.3 8.2 10.4 10.6 9.7 9.3 12.5 12.1 11.9 12.2 10.4 10.2 10.5 9.6 9.4 9.6 10.0
nan nan nan nan nan nan nan nan nan nan nan nan nan nan 2.6 3.7 5.1 4.3 nan nan 3.6 5.3 5.5 5.3 5.7 4.7 8.0 9.8 9.7 8.9 9.5 7.9 7.9 8.5 8.5 9.4 8.8 8.7 11.1 11.5 11.5 11.7 12.4 12.3 10.9 13.6 11.5 12.2 11.2 10.3 10.2 10.2 10.8 11.0
nan nan nan nan nan nan nan nan nan nan nan nan 2.9 4.2 4.6 4.6 nan nan 5.3 5.4 4.5 4.7 5.8 6.4 8.3 8.2 9.5 9.2 8.3 8.3 7.4 7.4 6.2 8.8 8.4 8.3 9.4 10.1 11.1 10.9 10.9 11.4 11.8 12.1 12.7 13.4 12.1 11.2 11.7 11.1 10.9 11.1 12.0 12.1
nan nan nan nan nan nan nan nan nan nan nan 3.1 4.5 5.7 4.4 nan 4.8 5.3 5.1 4.8 4.5 5.1 4.9 7.1 8.5 10.0 10.0 8.4 9.5 8.0 6.8 6.7 7.3 9.1 9.4 7.4 9.0 10.2 9.2 10.7 10.6 11.0 11.6 12.2 11.6 11.9 11.6 11.8 11.7 11.6 11.5 10.8 11.4 11.4
nan nan nan nan nan nan nan nan nan 2.5 2.5 3.8 4.3 5.1 5.0 5.9 6.0 6.0 6.1 5.9 6.0 6.8 6.8 7.0 8.3 10.5 9.0 7.0 7.5 6.8 7.0 6.6 8.5 8.2 7.7 8.4 11.2 11.4 9.1 10.3 11.5 10.9 10.9 11.2 11.1 10.8 10.4 10.2 10.8 11.5 11.7 11.7 11.3 11.1
nan nan nan nan nan nan nan nan nan nan nan 4.1 5.4 5.1 6.0 5.8 5.7 6.4 7.3 5.9 6.2 6.7 6.6 7.9 8.0 8.2 7.7 6.8 6.0 6.9 7.1 7.4 7.0 7.0 9.4 9.8 9.2 6.7 8.1 9.9 10.9 11.8 10.9 10.5 10.2 9.5 9.5 10.3 10.1 11.1 11.6 9.9 9.0 8.8
nan nan nan nan nan nan nan nan nan 2.7 3.2 5.7 5.2 5.4 6.2 6.6 6.4 5.4 7.2 6.2 7.5 6.9 8.4 9.1 8.1 7.0 7.2 6.9 8.2 6.6 8.8 8.7 7.7 8.6 8.0 7.7 9.8 8.9 9.5 9.2 10.8 11.3 10.9 10.6 10.1 9.8 10.3 10.3 10.1 9.5 9.2 9.6 9.7 9.9
nan nan nan nan nan nan nan nan nan 3.3 5.0 5.3 5.2 6.0 6.0 6.3 5.7 6.4 5.0 5.9 6.6 7.5 7.4 8.2 6.9 8.1 6.1 6.6 8.0 7.1 7.8 7.9 9.3 8.9 7.9 7.5 9.2 9.0 8.8 9.4 10.1 10.8 10.6 10.2 9.2 9.4 9.2 9.3 9.3 8.8 8.8 8.7 8.7 8.9
nan nan nan nan nan nan nan nan 3.4 4.3 4.8 4.5 5.0 5.7 7.9 6.0 6.2 6.3 5.6 6.3 7.1 7.7 7.1 6.4 6.2 6.7 6.8 7.4 7.5 7.5 7.4 8.6 7.6 6.6 7.0 7.3 8.1 8.9 9.5 9.1 8.7 8.8 9.0 9.3 8.7 8.5 8.5 9.2 9.7 9.7 8.7 8.7 8.9 9.4
nan 2.5 nan nan nan nan nan 4.0 3.9 4.2 4.2 4.4 4.9 7.5 7.0 6.4 7.2 8.7 9.1 9.3 8.4 7.7 6.3 6.3 7.1 7.8 6.7 7.3 7.8 5.8 6.9 7.0 6.4 6.8 8.1 9.3 9.4 9.4 8.9 8.7 8.6 8.5 8.3 8.7 8.6 8.5 8.7 8.6 8.6 9.5 10.0 9.7 9.9 10.0
2.5 nan nan nan nan nan 5.8 4.8 4.5 4.3 5.0 4.8 6.5 6.7 9.2 9.0 9.1 9.8 9.7 9.0 8.3 7.5 7.3 6.2 6.4 6.6 7.3 7.6 7.9 7.7 7.5 6.2 7.2 8.3 8.6 8.7 8.6 8.4 8.4 8.7 8.7 8.8 9.2 9.2 9.1 8.7 8.8 9.1 9.7 10.0 9.7 9.6 9.2 9.4
nan nan nan nan 2.9 4.5 4.3 4.5 3.7 5.3 5.5 6.0 8.1 8.3 8.7 10.1 10.3 10.3 10.2 10.1 8.9 8.6 6.5 6.4 6.8 7.2 9.4 7.7 7.4 6.2 7.0 8.3 9.8 9.0 8.7 8.5 8.7 8.8 8.8 8.3 8.5 8.7 9.0 9.5 10.0 10.6 10.2 10.3 10.5 10.2 10.2 10.7 11.6 10.7
nan nan nan nan nan 4.4 4.8 4.9 4.2 5.8 6.5 7.6 7.1 7.3 7.9 8.8 10.2 10.5 11.2 10.0 8.6 5.5 6.0 6.6 9.1 11.4 10.7 9.4 8.6 9.0 8.9 8.9 9.4 9.8 9.6 9.1 8.7 7.0 6.4 5.5 10.3 8.4 10.3 9.6 7.1 nan 8.5 10.8 11.0 11.8 12.9 13.6 14.2 12.6
nan nan nan 6.8 5.7 3.9 4.0 5.6 6.1 6.1 6.3 7.8 7.1 6.8 8.0 6.0 6.4 5.8 5.7 7.8 6.3 5.7 6.8 10.4 11.2 10.3 9.8 9.3 9.3 9.1 9.0 9.6 9.9 11.3 11.7 7.6 9.8 5.7 5.4 4.8 5.3 13.3 13.4 15.1 15.5 14.1 13.3 14.1 13.5 8.4 5.2 10.7 12.1 10.5
2.9 nan 4.9 5.2 4.0 4.5 5.4 5.1 5.9 6.7 7.4 6.9 6.8 6.6 6.3 6.3 6.2 6.1 5.9 6.4 6.7 7.5 11.1 11.5 10.8 10.3 10.4 11.7 11.9 11.4 10.4 11.7 11.2 11.4 nan 12.1 9.1 6.8 6.5 5.9 7.2 6.5 6.4 6.1 7.0 9.3 9.6 9.9 10.1 9.3 8.6 7.2 8.2 7.9
nan 5.4 4.3 3.8 5.3 5.3 5.6 5.4 7.1 7.2 7.4 6.9 6.7 7.1 6.9 6.5 6.3 6.1 6.7 6.3 7.5 10.2 10.4 9.9 10.7 11.1 11.0 12.4 11.4 12.1 11.5 10.2 11.5 14.2 13.4 13.3 12.4 6.0 5.5 6.5 6.8 6.7 6.4 6.2 7.4 7.9 7.4 nan 9.2 9.8 7.9 8.5 8.4 8.4
nan 4.6 5.3 5.6 5.8 6.2 7.0 6.9 7.7 8.0 7.9 7.9 7.4 7.8 7.7 7.5 7.5 7.0 7.8 8.2 9.4 9.5 9.7 11.5 9.3 8.6 8.8 9.5 10.7 11.0 8.4 7.3 7.1 7.1 10.1 7.9 6.6 8.3 12.9 8.4 11.6 8.0 9.7 8.1 7.0 7.4 8.0 8.3 nan 7.9 8.1 8.4 8.7 9.3
4.7 4.9 5.6 5.6 6.7 7.4 8.5 9.4 8.1 9.1 8.5 8.7 8.7 8.2 8.0 9.1 7.8 7.5 9.1 8.7 8.7 9.1 9.6 10.3 9.7 9.1 8.2 7.4 9.8 6.9 6.3 5.7 7.8 8.2 5.4 6.3 8.3 7.9 6.5 6.4 8.7 8.6 7.2 6.7 9.0 8.8 8.0 8.1 8.3 8.2 9.0 9.7 9.9 9.8
5.4 6.0 5.8 7.2 7.3 8.3 8.9 8.9 9.5 9.0 9.2 9.1 8.9 9.5 8.7 8.7 8.2 7.7 10.2 8.7 8.4 8.4 7.4 6.8 7.0 7.6 7.6 6.4 7.8 8.1 8.3 6.9 7.3 7.6 6.1 6.0 6.5 6.5 6.2 7.6 7.7 6.7 7.9 10.0 7.8 8.6 8.5 8.5 9.3 9.9 9.7 10.1 nan 9.5
6.1 6.6 7.7 8.0 9.7 11.1 10.5 10.4 10.6 9.7 9.3 9.0 9.2 10.0 8.9 8.1 8.8 11.6 10.4 10.4 9.4 8.1 7.3 5.7 5.4 5.8 6.5 7.1 7.4 7.1 6.8 6.2 6.6 6.2 6.8 6.7 7.1 7.8 6.4 7.1 8.4 7.7 8.7 8.4 8.2 8.7 9.0 8.7 9.1 9.2 9.0 8.5 8.7 9.0
7.8 9.0 9.2 8.4 10.1 10.4 10.4 11.2 10.0 9.3 9.5 11.1 10.4 9.2 8.7 9.7 10.2 10.7 10.7 9.3 8.9 8.1 7.4 7.3 7.1 6.7 7.0 7.1 7.4 8.5 7.4 7.3 7.5 8.2 7.9 8.0 8.1 6.7 6.9 6.7 6.9 nan 7.7 7.2 8.0 7.7 7.9 8.4 8.4 8.5 8.9 8.2 7.8 7.8
8.7 8.8 9.0 8.8 10.2 9.7 8.9 9.2 9.7 10.9 13.1 11.2 9.7 10.3 11.0 12.9 9.6 10.0 9.6 9.0 8.7 9.4 10.3 10.5 9.3 7.5 8.1 8.6 8.5 8.3 8.2 8.7 9.6 10.3 11.1 9.7 9.1 7.7 7.3 7.4 7.7 7.4 7.3 7.3 nan nan 8.5 8.5 8.1 7.8 7.8 8.0 8.0 7.7
8.9 8.4 9.4 9.8 9.5 9.7 9.5 11.6 9.4 10.0 11.8 10.9 11.2 11.7 12.4 11.0 10.5 9.2 10.5 10.6 10.8 10.0 8.5 7.9 8.1 7.7 8.3 8.7 8.8 9.6 9.3 9.4 8.0 8.7 8.8 8.9 8.2 7.7 7.9 8.3 8.4 8.2 7.9 8.1 8.2 7.5 nan 7.4 nan 8.3 8.5 9.0 9.0 9.3
9.2 8.4 9.9 10.1 9.7 8.9 10.1 11.8 9.9 12.5 10.5 9.5 10.0 10.4 10.9 10.9 11.8 10.8 11.5 11.1 11.0 9.2 8.7 8.4 8.3 8.1 9.1 9.3 8.8 9.0 9.5 8.8 9.3 9.2 9.2 8.8 8.7 8.6 8.6 8.4 8.4 8.5 8.6 8.8 8.9 8.9 8.8 9.1 9.1 9.2 9.8 9.6 9.6 9.9
9.1 8.7 9.1 10.0 8.5 8.3 9.4 8.8 8.9 9.0 9.1 8.9 9.2 9.3 10.1 10.3 11.8 11.7 10.5 10.0 10.1 10.5 nan 9.5 10.3 9.9 9.0 8.7 8.3 8.2 nan 8.8 9.1 9.2 9.3 9.0 8.7 9.1 8.9 8.7 8.3 8.6 8.8 9.0 9.2 9.5 9.4 9.1 9.4 9.4 9.9 9.7 10.1 10.7
8.3 8.9 8.9 10.0 8.0 8.4 8.6 8.8 10.5 7.6 8.8 9.1 10.1 10.2 10.0 11.8 13.6 12.0 13.1 10.3 9.3 9.7 9.8 9.1 8.9 8.6 10.2 10.4 9.3 8.8 nan 8.9 9.1 nan nan nan nan nan 9.1 8.7 8.8 9.2 9.7 9.8 9.7 9.5 9.8 9.6 9.3 10.3 10.2 9.9 9.9 10.4